When you browse on this site, cookies collect data to enhance your experience and personalize the content and advertising you see.
Visit our Privacy Policy to learn more. By continuing to use the site, you agree to this use of cookies and data.
  • In Hungary
  • List of Countries
  • For 7 days
  • Water Temperature
  • Satellite Maps
  • Weather Map
  • News
  • Weather Widgets
  • user-avatar
    Login

    Hourly Weather Goroka

    Today, 25 June, Tuesday

    Time Temperature Precipitation Wind Pressure Humidity
    00:00 +18°C° 0.1 mm 1 mps 625 mmHg 97%
    01:00 +18°C° 0.1 mm 1 mps 624 mmHg 97%
    02:00 +18°C° 0 mm 1 mps 624 mmHg 97%
    03:00 +18°C° 0 mm 1 mps 624 mmHg 97%
    04:00 +18°C° 0 mm 1 mps 624 mmHg 97%
    05:00 +18°C° 0 mm 1 mps 624 mmHg 97%
    06:00 +18°C° 0 mm 1 mps 624 mmHg 96%
    07:00 +18°C° 0 mm 1 mps 624 mmHg 96%
    08:00 +20°C° 0 mm 1 mps 625 mmHg 88%
    09:00 +22°C° 0 mm 1 mps 626 mmHg 80%
    10:00 +24°C° 0 mm 1 mps 627 mmHg 72%
    11:00 +24°C° 0.5 mm 1 mps 626 mmHg 73%
    12:00 +24°C° 0.5 mm 1 mps 626 mmHg 73%
    13:00 +25°C° 0.5 mm 1 mps 626 mmHg 74%
    14:00 +24°C° 1.8 mm 1 mps 625 mmHg 79%
    15:00 +23°C° 1.8 mm 1 mps 625 mmHg 84%
    16:00 +23°C° 1.8 mm 1 mps 624 mmHg 89%
    17:00 +21°C° 1.2 mm 1 mps 624 mmHg 91%
    18:00 +20°C° 1.2 mm 1 mps 624 mmHg 94%
    19:00 +19°C° 1.2 mm 1 mps 624 mmHg 96%
    20:00 +18°C° 0.3 mm 1 mps 624 mmHg 97%
    21:00 +18°C° 0.3 mm 1 mps 624 mmHg 97%
    22:00 +18°C° 0.3 mm 1 mps 625 mmHg 97%
    23:00 +18°C° 0.2 mm 1 mps 624 mmHg 97%

    Tomorrow, 26 June, Wednesday

    Time Temperature Precipitation Wind Pressure Humidity
    00:00 +18°C° 0.2 mm 1 mps 624 mmHg 97%
    01:00 +18°C° 0.2 mm 1 mps 624 mmHg 97%
    02:00 +18°C° 0.1 mm 1 mps 624 mmHg 97%
    03:00 +18°C° 0.1 mm 1 mps 624 mmHg 97%
    04:00 +18°C° 0.1 mm 1 mps 623 mmHg 97%
    05:00 +18°C° 0 mm 1 mps 624 mmHg 96%
    06:00 +16°C° 0 mm 1 mps 624 mmHg 96%
    07:00 +16°C° 0 mm 1 mps 624 mmHg 96%
    08:00 +19°C° 0 mm 1 mps 625 mmHg 90%
    09:00 +20°C° 0 mm 1 mps 625 mmHg 84%
    10:00 +22°C° 0 mm 1 mps 626 mmHg 78%
    11:00 +23°C° 0.2 mm 1 mps 626 mmHg 76%
    12:00 +23°C° 0.2 mm 1 mps 625 mmHg 73%
    13:00 +24°C° 0.2 mm 1 mps 625 mmHg 71%
    14:00 +23°C° 0.8 mm 1 mps 625 mmHg 76%
    15:00 +23°C° 0.8 mm 1 mps 624 mmHg 81%
    16:00 +22°C° 0.8 mm 1 mps 624 mmHg 86%
    17:00 +21°C° 0.7 mm 1 mps 624 mmHg 89%
    18:00 +20°C° 0.7 mm 1 mps 623 mmHg 92%
    19:00 +19°C° 0.7 mm 1 mps 623 mmHg 95%
    20:00 +19°C° 0 mm 1 mps 623 mmHg 96%
    21:00 +18°C° 0 mm 1 mps 624 mmHg 96%
    22:00 +18°C° 0 mm 1 mps 624 mmHg 96%
    23:00 +18°C° 0 mm 1 mps 623 mmHg 96%

    Day after tomorrow, 27 June, Thursday

    Time Temperature Precipitation Wind Pressure Humidity
    00:00 +16°C° 0 mm 1 mps 623 mmHg 96%
    01:00 +16°C° 0 mm 1 mps 623 mmHg 96%
    02:00 +16°C° 0 mm 1 mps 622 mmHg 95%
    03:00 +16°C° 0 mm 1 mps 622 mmHg 95%
    04:00 +16°C° 0 mm 1 mps 622 mmHg 94%
    05:00 +16°C° 0 mm 1 mps 622 mmHg 94%
    06:00 +16°C° 0 mm 1 mps 622 mmHg 93%
    07:00 +16°C° 0 mm 1 mps 623 mmHg 93%
    08:00 +19°C° 0 mm 1 mps 624 mmHg 86%
    09:00 +19°C° 0 mm 0 mps 624 mmHg 79%
    10:00 +21°C° 0 mm 0 mps 625 mmHg 73%
    11:00 +24°C° 0.4 mm 1 mps 625 mmHg 71%
    12:00 +25°C° 0.4 mm 1 mps 625 mmHg 69%
    13:00 +25°C° 0.4 mm 1 mps 624 mmHg 67%
    14:00 +24°C° 1.2 mm 1 mps 624 mmHg 74%
    15:00 +24°C° 1.2 mm 1 mps 624 mmHg 80%
    16:00 +23°C° 1.2 mm 1 mps 623 mmHg 86%
    17:00 +21°C° 0.9 mm 1 mps 623 mmHg 90%
    18:00 +18°C° 0.9 mm 0 mps 623 mmHg 93%
    19:00 +17°C° 0.9 mm 0 mps 623 mmHg 96%
    20:00 +17°C° 0.2 mm 0 mps 623 mmHg 96%
    21:00 +16°C° 0.2 mm 0 mps 623 mmHg 96%
    22:00 +16°C° 0.2 mm 0 mps 624 mmHg 96%
    23:00 +16°C° 0 mm 0 mps 623 mmHg 96%

    28 June, Friday

    Time Temperature Precipitation Wind Pressure Humidity
    00:00 +16°C° 0 mm 0 mps 623 mmHg 96%
    01:00 +16°C° 0 mm 0 mps 623 mmHg 96%
    02:00 +15°C° 0 mm 0 mps 623 mmHg 96%
    03:00 +15°C° 0 mm 0 mps 622 mmHg 96%
    04:00 +16°C° 0 mm 1 mps 622 mmHg 96%
    05:00 +16°C° 0 mm 1 mps 622 mmHg 96%
    06:00 +16°C° 0 mm 1 mps 622 mmHg 95%
    07:00 +16°C° 0 mm 1 mps 623 mmHg 95%
    08:00 +19°C° 0 mm 1 mps 624 mmHg 87%
    09:00 +21°C° 0 mm 1 mps 625 mmHg 80%
    10:00 +24°C° 0 mm 1 mps 626 mmHg 72%
    11:00 +24°C° 0.7 mm 1 mps 625 mmHg 74%
    12:00 +24°C° 0.7 mm 1 mps 625 mmHg 75%
    13:00 +24°C° 0.7 mm 1 mps 624 mmHg 77%
    14:00 +23°C° 1.4 mm 1 mps 624 mmHg 82%
    15:00 +23°C° 1.4 mm 1 mps 623 mmHg 86%
    16:00 +22°C° 1.4 mm 1 mps 623 mmHg 91%
    17:00 +21°C° 0.9 mm 1 mps 623 mmHg 93%
    18:00 +20°C° 0.9 mm 1 mps 623 mmHg 95%
    19:00 +17°C° 0.9 mm 0 mps 623 mmHg 97%
    20:00 +17°C° 0.2 mm 0 mps 623 mmHg 97%
    21:00 +16°C° 0.2 mm 0 mps 624 mmHg 97%
    22:00 +16°C° 0.2 mm 0 mps 624 mmHg 96%
    23:00 +16°C° 0 mm 0 mps 624 mmHg 96%

    29 June, Saturday

    Time Temperature Precipitation Wind Pressure Humidity
    00:00 +16°C° 0 mm 0 mps 623 mmHg 96%
    01:00 +16°C° 0 mm 0 mps 623 mmHg 96%
    02:00 +15°C° 0.1 mm 0 mps 623 mmHg 96%
    03:00 +15°C° 0.1 mm 0 mps 622 mmHg 96%
    04:00 +15°C° 0.1 mm 0 mps 622 mmHg 96%
    05:00 +15°C° 0 mm 0 mps 623 mmHg 95%
    06:00 +15°C° 0 mm 0 mps 623 mmHg 95%
    07:00 +15°C° 0 mm 0 mps 623 mmHg 95%
    08:00 +17°C° 0.1 mm 0 mps 624 mmHg 89%
    09:00 +21°C° 0.1 mm 1 mps 625 mmHg 83%
    10:00 +23°C° 0.1 mm 1 mps 626 mmHg 78%
    11:00 +23°C° 0.9 mm 1 mps 625 mmHg 79%
    12:00 +23°C° 0.9 mm 1 mps 625 mmHg 81%
    13:00 +23°C° 0.9 mm 1 mps 624 mmHg 82%
    14:00 +23°C° 1.1 mm 1 mps 624 mmHg 85%
    15:00 +22°C° 1.1 mm 1 mps 623 mmHg 87%
    16:00 +22°C° 1.1 mm 1 mps 623 mmHg 89%
    17:00 +21°C° 0.7 mm 1 mps 623 mmHg 92%
    18:00 +20°C° 0.7 mm 1 mps 623 mmHg 95%
    19:00 +19°C° 0.7 mm 1 mps 623 mmHg 98%
    20:00 +19°C° 0.2 mm 1 mps 623 mmHg 98%
    21:00 +16°C° 0.2 mm 0 mps 624 mmHg 98%
    22:00 +16°C° 0.2 mm 0 mps 624 mmHg 97%
    23:00 +16°C° 0.1 mm 0 mps 624 mmHg 97%

    30 June, Sunday

    Time Temperature Precipitation Wind Pressure Humidity
    00:00 +16°C° 0.1 mm 0 mps 623 mmHg 97%
    01:00 +16°C° 0.1 mm 0 mps 623 mmHg 97%
    02:00 +16°C° 0.1 mm 0 mps 623 mmHg 97%
    03:00 +16°C° 0.1 mm 0 mps 622 mmHg 97%
    04:00 +16°C° 0.1 mm 0 mps 622 mmHg 97%
    05:00 +16°C° 0 mm 0 mps 622 mmHg 97%
    06:00 +16°C° 0 mm 0 mps 623 mmHg 97%
    07:00 +15°C° 0 mm 0 mps 623 mmHg 97%
    08:00 +17°C° 0.2 mm 0 mps 624 mmHg 92%
    09:00 +19°C° 0.2 mm 0 mps 624 mmHg 88%
    10:00 +20°C° 0.2 mm 0 mps 625 mmHg 84%
    11:00 +20°C° 1.1 mm 0 mps 625 mmHg 86%
    12:00 +20°C° 1.1 mm 0 mps 624 mmHg 89%
    13:00 +21°C° 1.1 mm 1 mps 623 mmHg 92%
    14:00 +19°C° 1 mm 0 mps 623 mmHg 93%
    15:00 +19°C° 1 mm 0 mps 623 mmHg 94%
    16:00 +18°C° 1 mm 0 mps 622 mmHg 95%
    17:00 +18°C° 0.9 mm 0 mps 622 mmHg 96%
    18:00 +17°C° 0.9 mm 0 mps 623 mmHg 97%
    19:00 +17°C° 0.9 mm 0 mps 623 mmHg 98%
    20:00 +17°C° 0.6 mm 0 mps 623 mmHg 97%
    21:00 +16°C° 0.6 mm 0 mps 624 mmHg 97%
    22:00 +16°C° 0.6 mm 0 mps 624 mmHg 96%
    23:00 +16°C° 0.9 mm 0 mps 624 mmHg 97%
    Show more